Location: ???????
(55.4362°N, 38.1183°E)
Time: 18:49:40
(UTC+00:00)

OPS 8737 - Pass Details

Date: 24 October 2021
Orbit: 356 x 1703 km, 63.3° (Epoch: 11 October)

Event Time Altitude Azimuth Distance (km) Brightness Sun altitude
Rises 15:04:04 0° 280° (W) 2,397 9.7 -8.8°
Reaches altitude 10° 15:06:36 10° 298° (WNW) 1,423 7.8 -9.1°
Maximum altitude 15:08:55 20° 349° (NNW) 937 6.1 -9.4°
Drops below altitude 10° 15:11:08 10° 40° (NE) 1,345 6.4 -9.8°
Enters shadow 15:11:17 - 42° (NE) 1,398 6.5 -9.8°
